User: anonymous   Login
Location: Boundary
(64.0833°N, 141.0167°W)
Time: 02:54:10
(UTC+00:00)
Language:

ISS - Orbit

View from above orbital plane
View from above orbital plane
View from above satellite
View from above satellite

Ground track
Ground track

The orbit data is extracted from the following two-line orbital elements,

1 25544U 98067A   20336.67190209  .00016717  00000-0  10270-3 0  9050
2 25544  51.6447 239.7558 0001558  89.2359 270.8969 15.49135839 17976
Epoch (UTC): 01 December 2020 16:07:32
Eccentricity: 0.0001558
inclination: 51.6447°
perigee height: 418 km
apogee height: 420 km
right ascension of ascending node: 239.7558°
argument of perigee: 89.2359°
revolutions per day: 15.49135839
mean anomaly at epoch: 270.8969°
orbit number at epoch: 1797

The dashed part of the orbit path shows where the satellite is in the earth's shadow,  

DLR